Regional Weather Roundup
Issued by NWS

Home | Current Version | Previous Version | Graphics & Text | Print | Product List | Glossary On
Versions: 1 2 3 4 5 6 7 8 9 10 11 12 13 14 15 16 17 18 19 20 21 22 23 24 25 26 27 28 29 30 31 32 33 34 35 36 37 38 39 40 41 42 43 44 45 46 47 48 49 50
000
ASUS43 KLOT 190300
RWRIL

ILLINOIS REGIONAL WEATHER ROUNDUP
NATIONAL WEATHER SERVICE CHICAGO/ROMEOVILLE IL
900 PM CST THU DEC 18 2014

NOTE: "FAIR" INDICATES FEW OR NO CLOUDS BELOW 12,000 FEET WITH NO
SIGNIFICANT WEATHER AND/OR OBSTRUCTIONS TO VISIBILITY.

* THESE STATIONS ARE NOT UNDER NWS QUALITY CONTROL. THEY ALSO MAY NOT
  REPORT WEATHER SUCH AS PRECIPITATION OR FOG.

ILZ001-002-007-009-015-016-024-190400-
NORTHWEST ILLINOIS

CITY           SKY/WX    TMP DP  RH WIND       PRES   REMARKS
MOLINE         CLEAR     25  17  72 CALM      30.29R
STERLING*      PTCLDY    19  16  86 CALM      30.27F
$$

ILZ003-004-008-010-011-017-018-190400-
NORTH CENTRAL ILLINOIS

CITY           SKY/WX    TMP DP  RH WIND       PRES   REMARKS
ROCKFORD       CLOUDY    27  19  72 CALM      30.28S
$$

ILZ005-006-012>014-019>023-190400-
NORTHEAST ILLINOIS

CITY           SKY/WX    TMP DP  RH WIND       PRES   REMARKS
CHICAGO-OHARE  CLOUDY    28  20  71 NW6       30.25R WCI  22
CHICAGO-MIDWAY CLOUDY    30  20  66 NW6       30.25F WCI  24
AURORA         CLOUDY    27  19  72 W3        30.27S
WAUKEGAN       CLOUDY    27  23  85 CALM      30.24S
DUPAGE AIRPORT CLOUDY    27  20  75 W6        30.25S WCI  20
WHEELING       CLOUDY    28  22  78 NW6       30.27S WCI  22
NORTHERLY ISL    N/A     30  21  69 W6          N/A  WCI  24
$$

LMZ740>746-190400-
SOUTHERN LAKE MICHIGAN

STATION/POSITION SKY/WX   TEMP    WIND        PRES    VSBY  WAVE
                          AIR SEA DIR/SP/G                  HT/PER
                          (F)     (DEG/KT/KT) (MB)    (MI)  (FT/S)
WAUKEGAN HARBOR            28     320/  3/  7   N/A
HARRISON CRIB              28     320/  7/  9   N/A
BURNHAM HARBOR             29     260/  5/  8   N/A
CALUMET HARBOR             28     190/  3/  6 1023.1F
$$

ILZ025>027-034>036-040-047-049-050-058-095>099-190400-
WEST-CENTRAL ILLINOIS

CITY           SKY/WX    TMP DP  RH WIND       PRES   REMARKS
QUINCY         CLOUDY    28  24  85 NE7       30.27S WCI  21
$$

ILZ028>032-037-038-041>044-048-051>054-059>061-190400-
CENTRAL ILLINOIS

CITY           SKY/WX    TMP DP  RH WIND       PRES   REMARKS
DECATUR        MOCLDY    27  22  81 N3        30.28R
PEORIA         CLOUDY    27  19  72 CALM      30.28S
SPRINGFIELD    CLOUDY    30  23  75 N3        30.29R
TAYLORVILLE    NOT AVBL
$$

ILZ033-039-045-046-055>057-062-063-190400-
EAST-CENTRAL ILLINOIS

CITY           SKY/WX    TMP DP  RH WIND       PRES   REMARKS
CHAMPAIGN      CLOUDY    26  23  88 NW3       30.27S
MATTOON        PTCLDY    26  22  84 N5        30.26S WCI  20
$$

ILZ079-100>102-190400-
SOUTHWEST ILLINOIS

CITY           SKY/WX    TMP DP  RH WIND       PRES   REMARKS
CAHOKIA*       CLOUDY    34  26  72 E6        30.28S WCI  29
$$

ILZ064>066-069>071-074>076-080>082-084>086-088>090-092>094-190400-
SOUTH-CENTRAL ILLINOIS

CITY           SKY/WX    TMP DP  RH WIND       PRES   REMARKS
CARBONDALE     CLOUDY    34  29  82 CALM      30.28R
MT. VERNON     CLOUDY    32  23  69 NE5       30.28S WCI  27
$$

ILZ067-068-072-073-078-083-087-091-190400-
SOUTHEAST ILLINOIS

CITY           SKY/WX    TMP DP  RH WIND       PRES   REMARKS
LAWRENCEVILLE  CLOUDY    31  25  78 CALM      30.28S
$$

ABBREVIATIONS USED IN REMARKS
   TC - TEMPERATURE IN CELSIUS
  WCI - WIND CHILL INDEX
   HX - HEAT INDEX
  VSB - VISIBILITY
$$



USA.gov is the U.S. government's official web portal to all federal, state and local government web resources and services.